Flag for Germany Weather past 2 weeks in Germering, Bavaria, Germany

Now
46 °F

Passing clouds.


Feels Like: 44 °F
Forecast: 30 / 53 °F
Wind: 5 mph from Northeast

Location: Oberpfaffenhofen


UV Index: 3 (Moderate)

Visibility: N/A


Pressure: 30.33 "Hg

Humidity: 53%

Dew point: 30 °F

Location of GermeringLocation

Historic Weather in Germering

°F

Germering temperature yesterday

Maximum temperature yesterday: 41 °F (at 3:20 PM)
Minimum temperature yesterday: 34 °F (at 6:50 AM)
Average temperature yesterday: 38 °F

Past Weeks' High & Low Weather Summary

 TemperatureHumidityPressure
High70 °F (Apr 2, 4:50 PM)100% (Apr 7, 7:50 AM)30.33 "Hg (Apr 7, 7:50 AM)
Low28 °F (Apr 16, 6:50 AM)21% (Apr 2, 4:50 PM)29.68 "Hg (Apr 3, 2:50 PM)
Average52 °F59%30.02 "Hg
* Reported Apr 1 4:20 PM — Apr 16 4:50 PM, Germering, Weather by CustomWeather, © 2014

Note: Actual official high and low records may vary slightly from our data, if they occured in-between our weather recording intervals... More about our weather records

Advertising

Historic Weather Conditions — Data for Previous 24 hours

 ConditionsComfort  
Time TempWeatherWind HumidityBarometerVisibility
4:50 PM
Apr 16
45 °FPassing clouds.7 mph53%30.33 "HgN/A
4:20 PM46 °FPassing clouds.5 mph53%30.33 "HgN/A
3:50 PM45 °FPassing clouds.8 mph57%30.33 "HgN/A
3:20 PM45 °FPartly sunny.12 mph53%30.33 "HgN/A
2:50 PM45 °FBroken clouds.5 mph57%30.33 "HgN/A
2:20 PM43 °FSprinkles. Scattered clouds.8 mph57%30.33 "HgN/A
1:50 PM43 °FPartly sunny.6 mph57%30.33 "HgN/A
1:20 PM43 °FScattered clouds.8 mph57%30.33 "HgN/A
12:50 PM43 °FPartly sunny.10 mph57%30.33 "HgN/A
12:20 PM41 °FPartly sunny.8 mph61%30.33 "HgN/A
11:50 AM41 °FBroken clouds.8 mph61%30.33 "HgN/A
11:20 AM41 °FScattered clouds.8 mph61%30.33 "HgN/A
10:50 AM41 °FScattered clouds.2 mph57%30.33 "HgN/A
10:20 AM43 °FPassing clouds.3 mph61%30.33 "HgN/A
9:50 AM39 °FScattered clouds.2 mph65%30.33 "HgN/A
9:20 AM39 °FSunny.3 mph75%30.33 "Hg10 mi
8:50 AM37 °FSunny.1 mph81%30.33 "Hg10 mi
8:20 AM34 °FClear.2 mph93%30.33 "Hg6 mi
7:50 AM30 °FPassing clouds.No wind93%30.33 "Hg6 mi
7:20 AM28 °FFog.2 mph100%30.30 "Hg5 mi
6:50 AM28 °FPassing clouds.3 mph93%30.30 "Hg5 mi
7:50 PM
Apr 15
39 °FSunny.6 mph56%30.21 "Hg10 mi
7:20 PM39 °FPassing clouds.7 mph56%30.21 "HgN/A
6:50 PM39 °FSunny.8 mph56%30.21 "Hg10 mi
6:20 PM39 °FPartly sunny.9 mph56%30.21 "HgN/A
Weather by CustomWeather, © 2014

See weather overview